Home > Weather > L'viv > Past weeks

Flag for Ukraine Past Weather in L'viv, Ukraine — Yesterday and Last 2 Weeks

Now
59 °F

Light fog.


Feels Like: 59 °F
Forecast: 62 / 84 °F
Wind: 1 mph from South

Location: L'Viv Airport

Current Time: Jul 31, 2016 at 6:34:44 AM

Latest Report: Jul 31, 2016 at 6:03 AM


Visibility: 0 mi

Pressure: 29.98 "Hg

Humidity: 94%

Dew Point: 57 °F

Location of L'vivLocation

Past Weather in L'viv — Graph

°F

L'viv Temperature Yesterday

Maximum temperature yesterday: 82 °F (at 4:00 PM)
Minimum temperature yesterday: 57 °F (at 4:30 AM)
Average temperature yesterday: 70 °F

High & Low Weather Summary for the Past Weeks

 TemperatureHumidityPressure
High88 °F (Jul 26, 3:00 PM)94% (Jul 17, 9:00 AM)30.15 "Hg (Jul 17, 9:00 AM)
Low46 °F (Jul 22, 6:00 AM)31% (Jul 21, 4:00 PM)29.86 "Hg (Jul 17, 1:00 PM)
Average67 °F72%30.01 "Hg
* Reported Jul 16 5:00 AM — Jul 31 5:30 AM, L'viv, Weather by CustomWeather, © 2016

Note: Actual official high and low records may vary slightly from our data, if they occured in-between our weather recording intervals... More about our weather records

Advertising

L'viv Weather History for the Previous 24 Hours

Scroll right to see more
 ConditionsComfort  
Time TempWeatherWind HumidityBarometerVisibility
5:30 AM
Sun, Jul 31
59 °FClear.1 mph94%29.98 "Hg0 mi
5:04 AM61 °FFog.1 mph88%29.98 "Hg2 mi
5:00 AM61 °FFog.1 mph88%29.98 "Hg3 mi
4:30 AM61 °FFog.1 mph94%29.98 "Hg1 mi
4:00 AM61 °FFog.1 mph94%29.98 "Hg2 mi
3:30 AM61 °FClear.1 mph88%29.98 "Hg4 mi
3:00 AM61 °FClear.1 mph88%29.98 "Hg10 mi
2:30 AM63 °FClear.1 mph88%29.98 "Hg10 mi
2:00 AM63 °FClear.No wind88%29.98 "Hg10 mi
1:30 AM63 °FClear.1 mph88%29.98 "Hg10 mi
1:00 AM63 °FClear.1 mph88%29.98 "Hg10 mi
12:30 AM63 °FClear.3 mph88%29.98 "Hg10 mi
12:00 AM63 °FClear.1 mph94%29.98 "Hg10 mi
11:30 PM
Sat, Jul 30
64 °FClear.1 mph88%29.98 "Hg10 mi
11:00 PM66 °FClear.1 mph83%29.98 "Hg10 mi
10:30 PM68 °FClear.No wind83%29.98 "Hg10 mi
10:00 PM68 °FSunny.3 mph78%29.98 "Hg10 mi
9:30 PM70 °FSunny.3 mph73%29.98 "Hg10 mi
9:00 PM73 °FSunny.3 mph65%29.98 "Hg10 mi
8:30 PM75 °FScattered clouds.6 mph65%29.98 "HgN/A
8:00 PM79 °FPartly sunny.3 mph45%29.95 "HgN/A
7:30 PM79 °FPartly sunny.6 mph42%29.95 "HgN/A
7:00 PM81 °FPartly sunny.6 mph42%29.95 "HgN/A
6:30 PM81 °FPartly sunny.6 mph42%29.95 "HgN/A
6:00 PM82 °FPartly sunny.8 mph42%29.95 "HgN/A
5:30 PM81 °FPartly sunny.3 mph45%29.95 "HgN/A
5:00 PM82 °FPartly sunny.6 mph40%29.95 "HgN/A
4:30 PM81 °FPartly sunny.8 mph45%29.95 "HgN/A
4:00 PM82 °FPartly sunny.6 mph40%29.95 "HgN/A
3:30 PM79 °FPartly sunny.6 mph48%29.95 "HgN/A
3:00 PM81 °FPartly sunny.6 mph48%29.98 "HgN/A
2:30 PM79 °FPartly sunny.6 mph51%29.98 "HgN/A
2:00 PM79 °FPartly sunny.3 mph51%29.98 "HgN/A
1:30 PM79 °FPartly sunny.6 mph51%29.98 "HgN/A
1:00 PM77 °FScattered clouds.6 mph51%29.98 "HgN/A
12:30 PM77 °FScattered clouds.6 mph54%30.01 "HgN/A
12:00 PM77 °FPassing clouds.6 mph54%30.01 "HgN/A
11:30 AM75 °FPassing clouds.6 mph54%30.01 "HgN/A
11:00 AM73 °FPassing clouds.3 mph61%30.01 "HgN/A
10:30 AM72 °FPassing clouds.3 mph69%30.01 "HgN/A
10:00 AM70 °FPassing clouds.6 mph73%30.01 "HgN/A
9:30 AM68 °FPassing clouds.6 mph78%30.01 "HgN/A
9:00 AM66 °FPassing clouds.3 mph83%30.01 "HgN/A
8:30 AM64 °FPassing clouds.3 mph88%30.01 "HgN/A
8:00 AM63 °FSunny.1 mph94%30.01 "Hg10 mi
7:30 AM61 °FClear.1 mph94%29.98 "Hg4 mi
7:00 AM59 °FLight fog.3 mph94%29.98 "Hg4 mi
6:30 AM57 °FLight fog.No wind94%29.98 "Hg0 mi
6:00 AM57 °FFog.No wind94%29.98 "Hg0 mi
Weather by CustomWeather, © 2016

See weather overviewHow to use our weather pages